Time,TemperatureF,DewpointF,PressureIn,WindDirection,WindDirectionDegrees,WindSpeedMPH,WindSpeedGustMPH,Humidity,HourlyPrecipIn,Conditions,Clouds,dailyrainin,SoftwareType,DateUTC
2013-01-25 00:00:00,10.4,-8.7,30.23,WNW,293,15.0,15.0,41,0.00,,,0.00,Wunderground v.1.13,2013-01-25 05:00:00,
2013-01-25 00:03:00,10.3,-8.8,30.22,NW,325,10.0,15.0,41,0.00,,,0.00,Wunderground v.1.13,2013-01-25 05:03:00,
2013-01-25 00:07:00,10.3,-8.8,30.23,NW,313,14.0,15.0,41,0.00,,,0.00,Wunderground v.1.13,2013-01-25 05:07:00,
2013-01-25 00:12:00,10.3,-8.8,30.24,NNW,348,9.0,12.0,41,0.00,,,0.00,Wunderground v.1.13,2013-01-25 05:12:00,
2013-01-25 00:17:00,10.3,-8.3,30.22,WNW,296,14.0,16.0,42,0.00,,,0.00,Wunderground v.1.13,2013-01-25 05:17:00,
2013-01-25 00:22:00,10.2,-8.4,30.23,WNW,299,7.0,10.0,42,0.00,,,0.00,Wunderground v.1.13,2013-01-25 05:22:00,
2013-01-25 00:28:00,10.1,-8.5,30.22,WNW,301,7.0,13.0,42,0.00,,,0.00,Wunderground v.1.13,2013-01-25 05:28:00,
2013-01-25 00:33:00,10.1,-8.5,30.22,NNW,344,9.0,12.0,42,0.00,,,0.00,Wunderground v.1.13,2013-01-25 05:33:00,
2013-01-25 00:38:00,10.0,-8.6,30.22,WNW,283,12.0,12.0,42,0.00,,,0.00,Wunderground v.1.13,2013-01-25 05:38:00,
2013-01-25 00:43:00,9.9,-8.2,30.22,NW,306,12.0,14.0,43,0.00,,,0.00,Wunderground v.1.13,2013-01-25 05:43:00,
2013-01-25 00:49:00,9.9,-8.7,30.22,WNW,300,7.0,12.0,42,0.00,,,0.00,Wunderground v.1.13,2013-01-25 05:49:00,
2013-01-25 00:54:00,9.9,-8.7,30.23,NNW,330,3.0,11.0,42,0.00,,,0.00,Wunderground v.1.13,2013-01-25 05:54:00,
2013-01-25 00:59:00,9.9,-8.2,30.24,West,279,5.0,8.0,43,0.00,,,0.00,Wunderground v.1.13,2013-01-25 05:59:00,
2013-01-25 01:04:00,9.7,-8.4,30.24,WNW,284,4.0,5.0,43,0.00,,,0.00,Wunderground v.1.13,2013-01-25 06:04:00,
2013-01-25 01:10:00,9.5,-8.1,30.23,NW,306,6.0,6.0,44,0.00,,,0.00,Wunderground v.1.13,2013-01-25 06:10:00,
2013-01-25 01:15:00,9.5,-8.1,30.23,WNW,292,2.0,6.0,44,0.00,,,0.00,Wunderground v.1.13,2013-01-25 06:15:00,
2013-01-25 01:21:00,9.4,-8.2,30.23,NW,304,11.0,11.0,44,0.00,,,0.00,Wunderground v.1.13,2013-01-25 06:21:00,
2013-01-25 01:26:00,9.4,-8.2,30.23,WNW,302,10.0,10.0,44,0.00,,,0.00,Wunderground v.1.13,2013-01-25 06:26:00,
2013-01-25 01:31:00,9.4,-7.7,30.24,WNW,294,8.0,10.0,45,0.00,,,0.00,Wunderground v.1.13,2013-01-25 06:31:00,
2013-01-25 01:36:00,9.4,-7.7,30.25,WNW,300,4.0,7.0,45,0.00,,,0.00,Wunderground v.1.13,2013-01-25 06:36:00,
2013-01-25 01:42:00,9.2,-7.9,30.25,WNW,290,3.0,6.0,45,0.00,,,0.00,Wunderground v.1.13,2013-01-25 06:42:00,
2013-01-25 01:47:00,9.1,-8.0,30.25,WNW,294,3.0,7.0,45,0.00,,,0.00,Wunderground v.1.13,2013-01-25 06:47:00,
2013-01-25 01:53:00,9.0,-8.1,30.25,NW,306,10.0,10.0,45,0.00,,,0.00,Wunderground v.1.13,2013-01-25 06:53:00,
2013-01-25 01:58:00,9.0,-8.1,30.25,NW,311,10.0,13.0,45,0.00,,,0.00,Wunderground v.1.13,2013-01-25 06:58:00,
2013-01-25 02:03:00,9.0,-8.1,30.24,NW,323,5.0,13.0,45,0.00,,,0.00,Wunderground v.1.13,2013-01-25 07:03:00,
2013-01-25 02:08:00,9.0,-7.6,30.24,WNW,294,7.0,12.0,46,0.00,,,0.00,Wunderground v.1.13,2013-01-25 07:08:00,
2013-01-25 02:13:00,9.0,-8.1,30.25,NW,309,3.0,14.0,45,0.00,,,0.00,Wunderground v.1.13,2013-01-25 07:13:00,
2013-01-25 02:18:00,8.9,-7.7,30.25,WNW,299,5.0,14.0,46,0.00,,,0.00,Wunderground v.1.13,2013-01-25 07:18:00,
2013-01-25 02:23:00,8.9,-7.7,30.25,NW,319,6.0,15.0,46,0.00,,,0.00,Wunderground v.1.13,2013-01-25 07:23:00,
2013-01-25 02:28:00,9.0,-7.2,30.25,WNW,296,9.0,10.0,47,0.00,,,0.00,Wunderground v.1.13,2013-01-25 07:28:00,
2013-01-25 02:33:00,9.0,-7.6,30.25,NW,309,3.0,14.0,46,0.00,,,0.00,Wunderground v.1.13,2013-01-25 07:33:00,
2013-01-25 02:38:00,9.1,-7.5,30.25,NW,304,12.0,15.0,46,0.00,,,0.00,Wunderground v.1.13,2013-01-25 07:38:00,
2013-01-25 02:43:00,9.1,-7.5,30.25,WNW,294,9.0,12.0,46,0.00,,,0.00,Wunderground v.1.13,2013-01-25 07:43:00,
2013-01-25 02:48:00,9.1,-7.5,30.25,NW,306,2.0,12.0,46,0.00,,,0.00,Wunderground v.1.13,2013-01-25 07:48:00,
2013-01-25 02:53:00,9.0,-7.6,30.26,WSW,250,2.0,8.0,46,0.00,,,0.00,Wunderground v.1.13,2013-01-25 07:53:00,
2013-01-25 02:58:00,8.9,-7.7,30.25,NW,312,4.0,6.0,46,0.00,,,0.00,Wunderground v.1.13,2013-01-25 07:58:00,
2013-01-25 03:03:00,8.9,-7.7,30.26,NW,319,4.0,11.0,46,0.00,,,0.00,Wunderground v.1.13,2013-01-25 08:03:00,
2013-01-25 03:08:00,8.9,-7.7,30.26,WNW,300,4.0,5.0,46,0.00,,,0.00,Wunderground v.1.13,2013-01-25 08:08:00,
2013-01-25 03:14:00,8.8,-7.8,30.26,WNW,298,7.0,12.0,46,0.00,,,0.00,Wunderground v.1.13,2013-01-25 08:14:00,
2013-01-25 03:19:00,8.8,-7.8,30.25,WNW,297,7.0,8.0,46,0.00,,,0.00,Wunderground v.1.13,2013-01-25 08:19:00,
2013-01-25 03:23:00,8.9,-7.7,30.25,NW,312,4.0,10.0,46,0.00,,,0.00,Wunderground v.1.13,2013-01-25 08:23:00,
2013-01-25 03:28:00,9.0,-8.1,30.25,NW,309,3.0,10.0,45,0.00,,,0.00,Wunderground v.1.13,2013-01-25 08:28:00,
2013-01-25 03:33:00,9.0,-8.1,30.25,WNW,300,4.0,6.0,45,0.00,,,0.00,Wunderground v.1.13,2013-01-25 08:33:00,
2013-01-25 03:38:00,8.9,-7.7,30.25,WNW,300,2.0,9.0,46,0.00,,,0.00,Wunderground v.1.13,2013-01-25 08:38:00,
2013-01-25 03:43:00,8.9,-8.2,30.25,NW,326,4.0,7.0,45,0.00,,,0.00,Wunderground v.1.13,2013-01-25 08:43:00,
2013-01-25 03:48:00,8.9,-8.2,30.25,NNW,338,5.0,9.0,45,0.00,,,0.00,Wunderground v.1.13,2013-01-25 08:48:00,
2013-01-25 03:53:00,8.9,-8.2,30.25,West,277,9.0,9.0,45,0.00,,,0.00,Wunderground v.1.13,2013-01-25 08:53:00,
2013-01-25 03:58:00,9.0,-8.5,30.25,NNW,334,3.0,11.0,44,0.00,,,0.00,Wunderground v.1.13,2013-01-25 08:58:00,
2013-01-25 04:03:00,9.1,-8.4,30.26,NW,326,8.0,12.0,44,0.00,,,0.00,Wunderground v.1.13,2013-01-25 09:03:00,
2013-01-25 04:08:00,9.1,-8.4,30.25,NW,310,5.0,10.0,44,0.00,,,0.00,Wunderground v.1.13,2013-01-25 09:08:00,
2013-01-25 04:14:00,9.0,-8.5,30.25,WNW,287,8.0,11.0,44,0.00,,,0.00,Wunderground v.1.13,2013-01-25 09:14:00,
2013-01-25 04:19:00,9.0,-8.5,30.25,WNW,292,4.0,14.0,44,0.00,,,0.00,Wunderground v.1.13,2013-01-25 09:19:00,
2013-01-25 04:24:00,8.9,-8.6,30.25,WNW,296,4.0,11.0,44,0.00,,,0.00,Wunderground v.1.13,2013-01-25 09:24:00,
2013-01-25 04:29:00,8.9,-8.6,30.26,WNW,294,5.0,13.0,44,0.00,,,0.00,Wunderground v.1.13,2013-01-25 09:29:00,
2013-01-25 04:34:00,8.8,-8.7,30.26,NW,313,4.0,7.0,44,0.00,,,0.00,Wunderground v.1.13,2013-01-25 09:34:00,
2013-01-25 04:39:00,8.7,-8.8,30.26,NW,313,2.0,11.0,44,0.00,,,0.00,Wunderground v.1.13,2013-01-25 09:39:00,
2013-01-25 04:44:00,8.6,-8.4,30.26,West,265,1.0,9.0,45,0.00,,,0.00,Wunderground v.1.13,2013-01-25 09:44:00,
2013-01-25 04:49:00,8.5,-8.1,30.26,West,266,0.0,4.0,46,0.00,,,0.00,Wunderground v.1.13,2013-01-25 09:49:00,
2013-01-25 04:54:00,8.3,-8.3,30.26,West,266,1.0,3.0,46,0.00,,,0.00,Wunderground v.1.13,2013-01-25 09:54:00,
2013-01-25 04:59:00,8.1,-8.4,30.26,West,276,4.0,6.0,46,0.00,,,0.00,Wunderground v.1.13,2013-01-25 09:59:00,
2013-01-25 05:04:00,8.0,-8.5,30.27,West,279,2.0,8.0,46,0.00,,,0.00,Wunderground v.1.13,2013-01-25 10:04:00,
2013-01-25 05:09:00,8.1,-8.4,30.27,WNW,288,6.0,10.0,46,0.00,,,0.00,Wunderground v.1.13,2013-01-25 10:09:00,
2013-01-25 05:14:00,8.2,-7.9,30.27,West,281,4.0,9.0,47,0.00,,,0.00,Wunderground v.1.13,2013-01-25 10:14:00,
2013-01-25 05:19:00,8.3,-8.3,30.27,WNW,301,5.0,10.0,46,0.00,,,0.00,Wunderground v.1.13,2013-01-25 10:19:00,
2013-01-25 05:24:00,8.4,-8.2,30.27,WNW,295,3.0,13.0,46,0.00,,,0.00,Wunderground v.1.13,2013-01-25 10:24:00,
2013-01-25 05:29:00,8.4,-8.2,30.27,NW,306,3.0,6.0,46,0.00,,,0.00,Wunderground v.1.13,2013-01-25 10:29:00,
2013-01-25 05:34:00,8.3,-7.8,30.27,NW,306,1.0,5.0,47,0.00,,,0.00,Wunderground v.1.13,2013-01-25 10:34:00,
2013-01-25 05:39:00,8.2,-7.9,30.27,NW,304,2.0,4.0,47,0.00,,,0.00,Wunderground v.1.13,2013-01-25 10:39:00,
2013-01-25 05:44:00,8.1,-8.0,30.28,WNW,303,1.0,6.0,47,0.00,,,0.00,Wunderground v.1.13,2013-01-25 10:44:00,
2013-01-25 05:49:00,8.0,-7.7,30.28,WNW,303,0.0,3.0,48,0.00,,,0.00,Wunderground v.1.13,2013-01-25 10:49:00,
2013-01-25 05:54:00,8.0,-7.7,30.28,WNW,303,0.0,2.0,48,0.00,,,0.00,Wunderground v.1.13,2013-01-25 10:54:00,
2013-01-25 05:59:00,8.0,-7.7,30.28,WNW,303,0.0,4.0,48,0.00,,,0.00,Wunderground v.1.13,2013-01-25 10:59:00,
2013-01-25 06:04:00,8.0,-8.1,30.28,NW,306,3.0,5.0,47,0.00,,,0.00,Wunderground v.1.13,2013-01-25 11:04:00,
2013-01-25 06:09:00,8.0,-8.1,30.28,NW,319,2.0,5.0,47,0.00,,,0.00,Wunderground v.1.13,2013-01-25 11:09:00,
2013-01-25 06:14:00,7.9,-8.2,30.28,West,260,2.0,5.0,47,0.00,,,0.00,Wunderground v.1.13,2013-01-25 11:14:00,
2013-01-25 06:19:00,7.9,-7.8,30.28,WNW,295,1.0,5.0,48,0.00,,,0.00,Wunderground v.1.13,2013-01-25 11:19:00,
2013-01-25 06:24:00,7.8,-7.9,30.28,WNW,295,5.0,5.0,48,0.00,,,0.00,Wunderground v.1.13,2013-01-25 11:24:00,
2013-01-25 06:29:00,7.9,-8.2,30.28,WNW,295,3.0,5.0,47,0.00,,,0.00,Wunderground v.1.13,2013-01-25 11:29:00,
2013-01-25 06:34:00,8.0,-7.7,30.28,WNW,303,6.0,6.0,48,0.00,,,0.00,Wunderground v.1.13,2013-01-25 11:34:00,